Location: Melizzano
(41.1500°N, 14.5000°E)
Time: 06:50:55
(UTC+00:00)

MetOp-B - Pass Details

Date: 11 May 2021
Orbit: 819 x 821 km, 98.7° (Epoch: 15 June)

Event Time Altitude Azimuth Distance (km) Brightness Sun altitude
Exits shadow 20:15:13 26° 183° (S) 1,564 5.2 -19.7°
Maximum altitude 20:18:14 65° 258° (WSW) 904 4.4 -20.1°
Drops below altitude 10° 20:23:34 10° 340° (NNW) 2,425 7.6 -20.7°
Sets 20:25:57 0° 344° (NNW) 3,361 8.5 -21.0°
